Check out our new BloomSky Weather System.

Active alerts


No alerts


Thunder radar  blitzortung!


Rain radar more information rain snow radar


Visit our other weather sites:

Template documentation
and downloads

And another site



Weather Underground History page Text

Daily Summary for January 28, 2018 Units:  Metric    English   Both
« Previous Day
Next Day »
Daily Weekly Monthly Yearly Custom
  High: Low: Average:
Temperature: -17.8 °C 11.2 °C 15.8 °C
Dew Point: -17.8 °C 6.9 °C 13.4 °C
Humidity: Humidity % 62 % 87 %
Wind Speed: 0 km/h 0 km/h 3.2 km/h
Wind Gust: 0 km/h - -
Wind:- - WNW
Pressure: 0 hPa 1021.6 hPa -
Precipitation: 0 mm    
Historical Graphs
 
 
Tabular Data for January 28, 2018
Time Temperature Dew Point Pressure Wind Wind Speed Wind Gust Humidity Rainfall Rate (Hourly)
-17.8 °C -17.8 °C 0 hPa Calm     Humidity % 0 mm
00:03 16.9 °C 16.9 °C 1021.6 hPa Calm   4.8 km/h 100 % 0.25 mm
00:08 16.9 °C 16.9 °C 1021.6 hPa NNW 1.6 km/h 3.2 km/h 100 % 0.25 mm
00:13 16.9 °C 16.9 °C 1021.6 hPa North 1.6 km/h 6.4 km/h 100 % 0.25 mm
00:18 16.9 °C 16.9 °C 1021.6 hPa Calm   6.4 km/h 100 % 0.25 mm
00:23 16.9 °C 16.9 °C 1021.6 hPa Calm   6.4 km/h 100 % 0.25 mm
00:28 16.8 °C 16.8 °C 1021.6 hPa Calm   3.2 km/h 100 % 0.25 mm
00:33 16.8 °C 16.6 °C 1021.6 hPa NNW 3.2 km/h 3.2 km/h 99 % 0.25 mm
00:38 16.8 °C 16.8 °C 1021.6 hPa Calm   3.2 km/h 100 % 0.25 mm
00:43 16.7 °C 16.7 °C 1021.6 hPa Calm   3.2 km/h 100 % 0.25 mm
00:48 16.7 °C 16.5 °C 1021.6 hPa Calm   3.2 km/h 99 % 0 mm
00:53 16.7 °C 16.5 °C 1021.6 hPa Calm   4.8 km/h 99 % 0 mm
00:58 16.7 °C 16.5 °C 1021.6 hPa Calm   4.8 km/h 99 % 0 mm
01:03 16.7 °C 16.5 °C 1021.6 hPa NNW 1.6 km/h 4.8 km/h 99 % 0 mm
01:08 16.7 °C 16.7 °C 1021.6 hPa Calm   3.2 km/h 100 % 0 mm
01:13 16.6 °C 16.6 °C 1021.6 hPa Calm   4.8 km/h 100 % 0 mm
01:18 16.6 °C 16.4 °C 1021.6 hPa Calm   4.8 km/h 99 % 0 mm
01:23 16.6 °C 16.4 °C 1021.6 hPa Calm   4.8 km/h 99 % 0 mm
01:28 16.6 °C 16.6 °C 1021.6 hPa NNW 1.6 km/h 3.2 km/h 100 % 0 mm
01:33 16.5 °C 16.5 °C 1021.6 hPa Calm   3.2 km/h 100 % 0 mm
01:38 16.5 °C 16.5 °C 1021.6 hPa Calm   3.2 km/h 100 % 0 mm
01:43 16.5 °C 16.5 °C 1021.6 hPa Calm   3.2 km/h 100 % 0 mm
01:48 16.5 °C 16.5 °C 1021.6 hPa Calm   3.2 km/h 100 % 0 mm
01:53 16.5 °C 16.5 °C 1021.6 hPa Calm   3.2 km/h 100 % 0 mm
01:58 16.4 °C 16.4 °C 1021.6 hPa Calm   3.2 km/h 100 % 0 mm
02:03 16.4 °C 16.4 °C 1021.6 hPa NNW 1.6 km/h 1.6 km/h 100 % 0 mm
02:08 16.4 °C 16.4 °C 1021.6 hPa NW 1.6 km/h 1.6 km/h 100 % 0 mm
02:13 16.4 °C 16.4 °C 1021.6 hPa Calm   3.2 km/h 100 % 0 mm
02:18 16.4 °C 16.4 °C 1021.6 hPa NW 1.6 km/h 3.2 km/h 100 % 0 mm
02:23 16.4 °C 16.4 °C 1021.6 hPa NNW 1.6 km/h 3.2 km/h 100 % 0 mm
02:28 16.4 °C 16.4 °C 1021.6 hPa NW 3.2 km/h 3.2 km/h 100 % 0 mm
02:33 16.4 °C 16.4 °C 1021.6 hPa Calm   3.2 km/h 100 % 0 mm
02:38 16.4 °C 16.4 °C 1021.6 hPa NW 1.6 km/h 6.4 km/h 100 % 0 mm
02:43 16.4 °C 16.4 °C 1021.6 hPa NW 1.6 km/h 6.4 km/h 100 % 0 mm
02:48 16.4 °C 16.4 °C 1021.6 hPa NW 3.2 km/h 6.4 km/h 100 % 0 mm
02:53 16.4 °C 16.4 °C 1021.6 hPa NW 1.6 km/h 4.8 km/h 100 % 0 mm
02:58 16.4 °C 16.4 °C 1021.6 hPa WNW 3.2 km/h 6.4 km/h 100 % 0 mm
03:03 16.4 °C 16.4 °C 1021.6 hPa NNW 8 km/h 8 km/h 100 % 0 mm
03:08 16.3 °C 16.3 °C 1021.6 hPa NW 1.6 km/h 9.7 km/h 100 % 0 mm
03:13 16.3 °C 16.3 °C 1021.6 hPa NW 1.6 km/h 9.7 km/h 100 % 0 mm
03:18 16.3 °C 16.1 °C 1021.6 hPa NNW 3.2 km/h 9.7 km/h 99 % 0 mm
03:23 16.3 °C 16.1 °C 1021.6 hPa NW 1.6 km/h 8 km/h 99 % 0 mm
03:28 16.3 °C 16.1 °C 1021.6 hPa North 3.2 km/h 8 km/h 99 % 0 mm
03:33 16.2 °C 16 °C 1021.6 hPa NW 3.2 km/h 8 km/h 99 % 0 mm
03:38 16.2 °C 16 °C 1021.6 hPa NW 1.6 km/h 8 km/h 99 % 0 mm
03:43 16.2 °C 16 °C 1021.6 hPa NW 3.2 km/h 8 km/h 99 % 0 mm
03:48 16.2 °C 16.2 °C 1021.6 hPa Calm   6.4 km/h 100 % 0 mm
03:53 16.2 °C 16.2 °C 1021.6 hPa WNW 4.8 km/h 8 km/h 100 % 0 mm
03:58 16.2 °C 16 °C 1021.6 hPa North 4.8 km/h 8 km/h 99 % 0 mm
04:03 16.1 °C 15.9 °C 1021.6 hPa NNE 3.2 km/h 9.7 km/h 99 % 0 mm
04:08 16.1 °C 15.9 °C 1021.6 hPa NNW 1.6 km/h 9.7 km/h 99 % 0 mm
04:13 16.1 °C 15.9 °C 1021.6 hPa North 1.6 km/h 9.7 km/h 99 % 0 mm
04:18 16.1 °C 15.9 °C 1021.6 hPa Calm   8 km/h 99 % 0 mm
04:23 16.1 °C 15.9 °C 1021.6 hPa NNE 3.2 km/h 8 km/h 99 % 0 mm
04:28 16 °C 15.8 °C 1021.6 hPa NW 1.6 km/h 6.4 km/h 99 % 0 mm
04:33 15.9 °C 15.7 °C 1021.6 hPa North 1.6 km/h 6.4 km/h 99 % 0 mm
04:38 15.9 °C 15.7 °C 1021.6 hPa NW 4.8 km/h 8 km/h 99 % 0 mm
04:43 15.9 °C 15.7 °C 1021.6 hPa NNE 9.7 km/h 9.7 km/h 99 % 0 mm
04:48 15.8 °C 15.6 °C 1021.6 hPa NW 3.2 km/h 9.7 km/h 99 % 0 mm
04:53 15.8 °C 15.6 °C 1021.6 hPa Calm   9.7 km/h 99 % 0 mm
04:58 15.8 °C 15.6 °C 1021.6 hPa NNW 1.6 km/h 9.7 km/h 99 % 0 mm
05:03 15.8 °C 15.6 °C 1021.6 hPa NW 1.6 km/h 8 km/h 99 % 0 mm
05:08 15.8 °C 15.6 °C 1021.6 hPa NW 3.2 km/h 8 km/h 99 % 0 mm
05:13 15.7 °C 15.5 °C 1021.6 hPa NNW 1.6 km/h 8 km/h 99 % 0 mm
05:18 15.7 °C 15.5 °C 1021.6 hPa NW 8 km/h 8 km/h 99 % 0 mm
05:23 15.7 °C 15.5 °C 1021.6 hPa NW 1.6 km/h 9.7 km/h 99 % 0 mm
05:28 15.7 °C 15.5 °C 1021.6 hPa NNW 9.7 km/h 9.7 km/h 99 % 0 mm
05:33 15.7 °C 15.5 °C 1021.6 hPa North 3.2 km/h 14.5 km/h 99 % 0 mm
05:38 15.6 °C 15.4 °C 1021.6 hPa NW 6.4 km/h 14.5 km/h 99 % 0 mm
05:43 15.6 °C 15.4 °C 1021.6 hPa NW 6.4 km/h 14.5 km/h 99 % 0 mm
05:48 15.5 °C 15.2 °C 1021.6 hPa NW 4.8 km/h 12.9 km/h 98 % 0 mm
05:53 15.4 °C 15.1 °C 1021.9 hPa NW 6.4 km/h 16.1 km/h 98 % 0 mm
05:58 15.3 °C 15 °C 1021.9 hPa NW 1.6 km/h 16.1 km/h 98 % 0 mm
06:03 15.2 °C 15 °C 1021.9 hPa NW 1.6 km/h 16.1 km/h 99 % 0 mm
06:08 15.2 °C 15 °C 1022.2 hPa NNW 6.4 km/h 16.1 km/h 99 % 0 mm
06:13 15.2 °C 15 °C 1022.2 hPa NW 6.4 km/h 12.9 km/h 99 % 0 mm
06:18 15.2 °C 15 °C 1022.2 hPa NNW 3.2 km/h 12.9 km/h 99 % 0 mm
06:23 15.1 °C 14.9 °C 1022.2 hPa NNW 3.2 km/h 11.3 km/h 99 % 0 mm
06:28 15 °C 14.7 °C 1022.2 hPa NNE 9.7 km/h 11.3 km/h 98 % 0 mm
06:33 14.9 °C 14.6 °C 1022.2 hPa NW 3.2 km/h 11.3 km/h 98 % 0 mm
06:38 14.8 °C 14.5 °C 1022.2 hPa Calm   11.3 km/h 98 % 0 mm
06:43 14.8 °C 14.6 °C 1022.2 hPa NNW 1.6 km/h 11.3 km/h 99 % 0 mm
06:48 14.8 °C 14.6 °C 1022.2 hPa Calm   11.3 km/h 99 % 0 mm
06:53 14.8 °C 14.6 °C 1022.2 hPa NW 1.6 km/h 9.7 km/h 99 % 0 mm
06:58 14.8 °C 14.6 °C 1022.2 hPa NW 1.6 km/h 11.3 km/h 99 % 0 mm
07:03 14.8 °C 14.6 °C 1022.6 hPa NW 1.6 km/h 11.3 km/h 99 % 0 mm
07:08 14.8 °C 14.6 °C 1022.2 hPa NNE 8 km/h 11.3 km/h 99 % 0 mm
07:13 14.8 °C 14.6 °C 1022.6 hPa NNW 3.2 km/h 11.3 km/h 99 % 0 mm
07:18 14.8 °C 14.6 °C 1022.6 hPa NW 1.6 km/h 11.3 km/h 99 % 0 mm
07:23 14.8 °C 14.5 °C 1022.6 hPa NW 1.6 km/h 11.3 km/h 98 % 0 mm
07:28 14.8 °C 14.5 °C 1022.6 hPa NNE 3.2 km/h 9.7 km/h 98 % 0 mm
07:33 14.8 °C 14.5 °C 1022.6 hPa NW 4.8 km/h 6.4 km/h 98 % 0 mm
07:38 14.8 °C 14.5 °C 1022.9 hPa North 1.6 km/h 6.4 km/h 98 % 0 mm
07:43 14.8 °C 14.5 °C 1022.9 hPa North 1.6 km/h 6.4 km/h 98 % 0 mm
07:48 14.8 °C 14.5 °C 1022.9 hPa NW 3.2 km/h 6.4 km/h 98 % 0 mm
07:53 14.8 °C 14.5 °C 1022.9 hPa NNW 4.8 km/h 8 km/h 98 % 0 mm
07:58 14.8 °C 14.5 °C 1022.9 hPa Calm   8 km/h 98 % 0 mm
08:03 14.8 °C 14.5 °C 1022.9 hPa NNW 1.6 km/h 8 km/h 98 % 0 mm
08:08 14.8 °C 14.5 °C 1022.9 hPa Calm   8 km/h 98 % 0 mm
08:13 14.8 °C 14.5 °C 1022.9 hPa NW 3.2 km/h 6.4 km/h 98 % 0 mm
08:18 14.8 °C 14.5 °C 1022.9 hPa NNW 6.4 km/h 9.7 km/h 98 % 0 mm
08:23 14.8 °C 14.5 °C 1023.2 hPa North 4.8 km/h 9.7 km/h 98 % 0 mm
08:28 14.8 °C 14.5 °C 1023.2 hPa Calm   9.7 km/h 98 % 0 mm
08:33 14.9 °C 14.6 °C 1023.2 hPa NW 3.2 km/h 9.7 km/h 98 % 0 mm
08:38 14.9 °C 14.6 °C 1023.2 hPa West 1.6 km/h 8 km/h 98 % 0 mm
08:43 14.9 °C 14.6 °C 1023.2 hPa NW 3.2 km/h 11.3 km/h 98 % 0 mm
08:48 14.9 °C 14.6 °C 1023.6 hPa North 4.8 km/h 11.3 km/h 98 % 0 mm
08:53 14.9 °C 14.6 °C 1023.6 hPa NNW 1.6 km/h 11.3 km/h 98 % 0 mm
08:58 14.9 °C 14.6 °C 1023.6 hPa NNE 8 km/h 9.7 km/h 98 % 0 mm
09:03 14.8 °C 14.5 °C 1023.6 hPa NNW 3.2 km/h 11.3 km/h 98 % 0 mm
09:08 14.9 °C 14.6 °C 1023.6 hPa Calm   11.3 km/h 98 % 0 mm
09:13 14.9 °C 14.4 °C 1023.6 hPa NE 3.2 km/h 11.3 km/h 97 % 0 mm
09:18 14.9 °C 14.4 °C 1023.9 hPa NW 1.6 km/h 12.9 km/h 97 % 0 mm
09:23 14.9 °C 14.4 °C 1023.9 hPa NNW 6.4 km/h 12.9 km/h 97 % 0 mm
09:28 14.9 °C 14.4 °C 1023.9 hPa NW 9.7 km/h 12.9 km/h 97 % 0 mm
09:33 14.9 °C 14.3 °C 1024.3 hPa NNW 1.6 km/h 16.1 km/h 96 % 0 mm
09:38 14.9 °C 14.3 °C 1024.3 hPa WNW 4.8 km/h 16.1 km/h 96 % 0 mm
09:43 14.9 °C 14.3 °C 1024.3 hPa NNW 6.4 km/h 16.1 km/h 96 % 0 mm
09:48 14.9 °C 14.3 °C 1024.3 hPa WNW 1.6 km/h 14.5 km/h 96 % 0 mm
09:53 14.9 °C 14.3 °C 1024.3 hPa North 8 km/h 12.9 km/h 96 % 0 mm
09:58 14.9 °C 14.3 °C 1024.3 hPa NNW 3.2 km/h 12.9 km/h 96 % 0 mm
10:03 14.9 °C 14.3 °C 1024.3 hPa NW 4.8 km/h 14.5 km/h 96 % 0 mm
10:08 14.9 °C 14.1 °C 1024.3 hPa NNW 4.8 km/h 14.5 km/h 95 % 0 mm
10:13 15.1 °C 14.3 °C 1024.3 hPa NNE 3.2 km/h 14.5 km/h 95 % 0 mm
10:18 15.1 °C 14.3 °C 1024.3 hPa NW 3.2 km/h 14.5 km/h 95 % 0 mm
10:23 15.2 °C 14.4 °C 1024.3 hPa NNW 3.2 km/h 11.3 km/h 95 % 0 mm
10:28 15.2 °C 14.4 °C 1024.3 hPa NNW 4.8 km/h 11.3 km/h 95 % 0 mm
10:33 15.3 °C 14.5 °C 1024.6 hPa NNW 6.4 km/h 11.3 km/h 95 % 0 mm
10:38 15.4 °C 14.6 °C 1024.6 hPa NNE 3.2 km/h 11.3 km/h 95 % 0 mm
10:43 15.3 °C 14.5 °C 1024.6 hPa WNW 4.8 km/h 11.3 km/h 95 % 0 mm
10:48 15.3 °C 14.5 °C 1024.6 hPa North 3.2 km/h 9.7 km/h 95 % 0 mm
10:53 15.4 °C 14.6 °C 1024.6 hPa NW 4.8 km/h 9.7 km/h 95 % 0 mm
10:58 15.4 °C 14.6 °C 1024.9 hPa NNW 6.4 km/h 9.7 km/h 95 % 0 mm
11:03 15.3 °C 14.5 °C 1024.6 hPa NW 6.4 km/h 8 km/h 95 % 0 mm
11:08 15.3 °C 14.5 °C 1024.6 hPa NW 3.2 km/h 8 km/h 95 % 0 mm
11:13 15.3 °C 14.5 °C 1024.6 hPa NNW 6.4 km/h 8 km/h 95 % 0 mm
11:18 15.3 °C 14.5 °C 1024.6 hPa NNW 4.8 km/h 11.3 km/h 95 % 0 mm
11:23 15.3 °C 14.5 °C 1024.6 hPa NNW 3.2 km/h 11.3 km/h 95 % 0 mm
11:28 15.3 °C 14.5 °C 1024.6 hPa NW 3.2 km/h 11.3 km/h 95 % 0 mm
11:33 15.3 °C 14.5 °C 1024.3 hPa North 6.4 km/h 11.3 km/h 95 % 0 mm
11:38 15.3 °C 14.5 °C 1024.3 hPa NW 1.6 km/h 9.7 km/h 95 % 0 mm
11:43 15.3 °C 14.5 °C 1024.3 hPa NNW 4.8 km/h 9.7 km/h 95 % 0 mm
11:48 15.2 °C 14.2 °C 1024.3 hPa NNW 4.8 km/h 11.3 km/h 94 % 0 mm
11:53 15.2 °C 14.2 °C 1024.3 hPa NW 3.2 km/h 11.3 km/h 94 % 0 mm
11:58 15.2 °C 14.4 °C 1024.3 hPa NNW 8 km/h 11.3 km/h 95 % 0 mm
12:03 15.3 °C 14.3 °C 1023.9 hPa NW 4.8 km/h 11.3 km/h 94 % 0 mm
12:08 15.5 °C 14.7 °C 1023.9 hPa North 8 km/h 9.7 km/h 95 % 0 mm
12:13 15.6 °C 14.6 °C 1023.9 hPa West 1.6 km/h 9.7 km/h 94 % 0 mm
12:18 15.8 °C 14.8 °C 1023.9 hPa NW 3.2 km/h 9.7 km/h 94 % 0 mm
12:23 16 °C 14.9 °C 1023.6 hPa NW 4.8 km/h 9.7 km/h 93 % 0 mm
12:28 16.2 °C 14.9 °C 1023.6 hPa NW 6.4 km/h 9.7 km/h 92 % 0 mm
12:34 16.3 °C 14.7 °C 1023.6 hPa WNW 6.4 km/h 14.5 km/h 90 % 0 mm
12:39 16.6 °C 14.6 °C 1023.2 hPa NNW 4.8 km/h 14.5 km/h 88 % 0 mm
12:44 16.7 °C 14.7 °C 1023.2 hPa NW 6.4 km/h 14.5 km/h 88 % 0 mm
12:49 16.9 °C 14.7 °C 1023.2 hPa WNW 8 km/h 16.1 km/h 87 % 0 mm
12:54 17.3 °C 14.9 °C 1022.9 hPa NNW 8 km/h 16.1 km/h 86 % 0 mm
12:59 17.6 °C 15 °C 1022.9 hPa North 9.7 km/h 16.1 km/h 85 % 0 mm
13:04 17.6 °C 14.9 °C 1022.9 hPa NW 4.8 km/h 16.1 km/h 84 % 0 mm
13:09 17.9 °C 14.8 °C 1022.9 hPa NNW 12.9 km/h 14.5 km/h 82 % 0 mm
13:14 18.1 °C 14.6 °C 1022.6 hPa WNW 1.6 km/h 12.9 km/h 80 % 0 mm
13:19 18.2 °C 14.5 °C 1022.6 hPa NW 4.8 km/h 12.9 km/h 79 % 0 mm
13:24 18.4 °C 14.7 °C 1022.6 hPa North 9.7 km/h 12.9 km/h 79 % 0 mm
13:29 18.6 °C 14.9 °C 1022.2 hPa NW 4.8 km/h 12.9 km/h 79 % 0 mm
13:34 18.8 °C 15.1 °C 1022.2 hPa WNW 3.2 km/h 11.3 km/h 79 % 0 mm
13:39 18.9 °C 14.4 °C 1022.2 hPa NNW 4.8 km/h 14.5 km/h 75 % 0 mm
13:44 19.1 °C 14.8 °C 1022.2 hPa NW 6.4 km/h 14.5 km/h 76 % 0 mm
13:49 19.2 °C 14.5 °C 1021.9 hPa NNE 9.7 km/h 14.5 km/h 74 % 0 mm
13:54 19.4 °C 14.4 °C 1021.9 hPa WNW 4.8 km/h 16.1 km/h 73 % 0 mm
13:59 19.3 °C 14.3 °C 1021.9 hPa NW 11.3 km/h 16.1 km/h 73 % 0 mm
14:04 19.4 °C 14.4 °C 1021.9 hPa NW 1.6 km/h 16.1 km/h 73 % 0 mm
14:09 19.5 °C 14.3 °C 1021.9 hPa WNW 9.7 km/h 14.5 km/h 72 % 0 mm
14:14 19.5 °C 13.9 °C 1021.9 hPa North 6.4 km/h 17.7 km/h 70 % 0 mm
14:19 19.7 °C 14.1 °C 1021.6 hPa North 16.1 km/h 17.7 km/h 70 % 0 mm
14:24 19.8 °C 13.9 °C 1021.6 hPa WNW 8 km/h 17.7 km/h 69 % 0 mm
14:29 19.7 °C 13.6 °C 1021.6 hPa North 12.9 km/h 17.7 km/h 68 % 0 mm
14:34 20 °C 13.9 °C 1021.6 hPa North 12.9 km/h 17.7 km/h 68 % 0 mm
14:39 20.1 °C 13.8 °C 1021.6 hPa WNW 3.2 km/h 17.7 km/h 67 % 0 mm
14:44 20 °C 13.7 °C 1021.6 hPa NNW 8 km/h 17.7 km/h 67 % 0 mm
14:49 19.9 °C 13.6 °C 1021.6 hPa NW 11.3 km/h 17.7 km/h 67 % 0 mm
14:54 19.8 °C 13.3 °C 1021.6 hPa NNW 6.4 km/h 16.1 km/h 66 % 0 mm
14:59 19.8 °C 13.5 °C 1021.6 hPa NW 3.2 km/h 17.7 km/h 67 % 0 mm
15:04 19.9 °C 13.6 °C 1021.6 hPa NNW 4.8 km/h 17.7 km/h 67 % 0 mm
15:09 20 °C 13.5 °C 1021.6 hPa NW 8 km/h 17.7 km/h 66 % 0 mm
15:14 19.8 °C 13.3 °C 1021.6 hPa WNW 4.8 km/h 16.1 km/h 66 % 0 mm
15:19 19.9 °C 12.9 °C 1021.6 hPa North 9.7 km/h 14.5 km/h 64 % 0 mm
15:24 19.8 °C 13 °C 1021.6 hPa NW 3.2 km/h 14.5 km/h 65 % 0 mm
15:29 19.7 °C 13.2 °C 1021.6 hPa WNW 4.8 km/h 14.5 km/h 66 % 0 mm
15:34 19.8 °C 13.3 °C 1021.6 hPa NW 8 km/h 14.5 km/h 66 % 0 mm
15:39 20 °C 13.2 °C 1021.6 hPa North 9.7 km/h 11.3 km/h 65 % 0 mm
15:44 20 °C 12.7 °C 1021.6 hPa NNW 8 km/h 11.3 km/h 63 % 0 mm
15:49 20.1 °C 12.8 °C 1021.6 hPa NW 6.4 km/h 14.5 km/h 63 % 0 mm
15:54 20.2 °C 13.2 °C 1021.6 hPa NNW 8 km/h 14.5 km/h 64 % 0 mm
15:59 20.2 °C 12.9 °C 1021.6 hPa WNW 9.7 km/h 14.5 km/h 63 % 0 mm
16:04 20.3 °C 13 °C 1021.6 hPa NNW 4.8 km/h 14.5 km/h 63 % 0 mm
16:09 20.3 °C 12.8 °C 1021.6 hPa North 8 km/h 14.5 km/h 62 % 0 mm
16:14 20.2 °C 12.9 °C 1021.6 hPa NW 6.4 km/h 16.1 km/h 63 % 0 mm
16:19 20.2 °C 13.2 °C 1021.6 hPa NNW 4.8 km/h 16.1 km/h 64 % 0 mm
16:24 20.2 °C 12.7 °C 1021.6 hPa NNW 9.7 km/h 16.1 km/h 62 % 0 mm
16:29 20 °C 13 °C 1021.6 hPa West 3.2 km/h 11.3 km/h 64 % 0 mm
16:34 20 °C 12.7 °C 1021.9 hPa NNW 3.2 km/h 11.3 km/h 63 % 0 mm
16:39 19.9 °C 12.9 °C 1021.9 hPa NNW 6.4 km/h 11.3 km/h 64 % 0 mm
16:44 19.8 °C 12.8 °C 1021.9 hPa NW 6.4 km/h 11.3 km/h 64 % 0 mm
16:49 19.7 °C 12.9 °C 1021.9 hPa NNW 3.2 km/h 11.3 km/h 65 % 0 mm
16:54 19.6 °C 12.8 °C 1021.9 hPa NW 3.2 km/h 11.3 km/h 65 % 0 mm
16:59 19.6 °C 12.8 °C 1021.9 hPa NW 6.4 km/h 11.3 km/h 65 % 0 mm
17:04 19.5 °C 12.7 °C 1021.9 hPa NNW 6.4 km/h 11.3 km/h 65 % 0 mm
17:09 19.4 °C 12.7 °C 1021.9 hPa WNW 3.2 km/h 11.3 km/h 65 % 0 mm
17:14 19.3 °C 12.6 °C 1022.2 hPa WNW 3.2 km/h 11.3 km/h 65 % 0 mm
17:19 19.2 °C 12.7 °C 1022.2 hPa WNW 6.4 km/h 11.3 km/h 66 % 0 mm
17:24 19.1 °C 12.6 °C 1022.2 hPa NW 4.8 km/h 11.3 km/h 66 % 0 mm
17:29 19 °C 12.7 °C 1022.2 hPa NW 3.2 km/h 11.3 km/h 67 % 0 mm
17:34 18.8 °C 12.5 °C 1022.2 hPa NNW 3.2 km/h 9.7 km/h 67 % 0 mm
17:39 18.7 °C 12.4 °C 1022.2 hPa NW 4.8 km/h 9.7 km/h 67 % 0 mm
17:44 18.5 °C 12.5 °C 1022.2 hPa NW 1.6 km/h 9.7 km/h 68 % 0 mm
17:49 18.3 °C 12.3 °C 1022.2 hPa NW 1.6 km/h 9.7 km/h 68 % 0 mm
17:54 18.2 °C 12.4 °C 1022.2 hPa NW 3.2 km/h 6.4 km/h 69 % 0 mm
17:59 18 °C 12.2 °C 1022.6 hPa NW 1.6 km/h 4.8 km/h 69 % 0 mm
18:04 17.8 °C 12 °C 1022.6 hPa NW 1.6 km/h 4.8 km/h 69 % 0 mm
18:09 17.6 °C 12.1 °C 1022.6 hPa NW 1.6 km/h 4.8 km/h 70 % 0 mm
18:14 17.4 °C 12.1 °C 1022.9 hPa NNW 1.6 km/h 3.2 km/h 71 % 0 mm
18:19 17.2 °C 12.1 °C 1022.9 hPa Calm   3.2 km/h 72 % 0 mm
18:24 16.9 °C 11.8 °C 1022.9 hPa NNW 1.6 km/h 1.6 km/h 72 % 0 mm
18:29 16.7 °C 11.8 °C 1022.9 hPa Calm   1.6 km/h 73 % 0 mm
18:34 16.6 °C 11.9 °C 1022.9 hPa Calm   1.6 km/h 74 % 0 mm
18:39 16.4 °C 11.8 °C 1022.9 hPa Calm   1.6 km/h 74 % 0 mm
18:44 16.3 °C 11.7 °C 1023.2 hPa Calm   1.6 km/h 74 % 0 mm
18:49 16.2 °C 11.8 °C 1023.2 hPa Calm   1.6 km/h 75 % 0 mm
18:54 16 °C 11.6 °C 1023.2 hPa Calm   1.6 km/h 75 % 0 mm
18:59 15.9 °C 11.7 °C 1023.2 hPa Calm   1.6 km/h 76 % 0 mm
19:04 15.7 °C 11.5 °C 1023.2 hPa Calm   1.6 km/h 76 % 0 mm
19:09 15.5 °C 11.5 °C 1023.6 hPa Calm   1.6 km/h 77 % 0 mm
19:14 15.3 °C 11.5 °C 1023.6 hPa Calm   1.6 km/h 78 % 0 mm
19:19 15.2 °C 11.4 °C 1023.6 hPa Calm   1.6 km/h 78 % 0 mm
19:24 15.1 °C 11.3 °C 1023.6 hPa Calm   1.6 km/h 78 % 0 mm
19:29 14.8 °C 11.2 °C 1023.6 hPa Calm   1.6 km/h 79 % 0 mm
19:34 14.6 °C 11 °C 1023.9 hPa Calm     79 % 0 mm
19:39 14.2 °C 10.8 °C 1023.9 hPa Calm     80 % 0 mm
19:44 13.9 °C 10.7 °C 1023.9 hPa Calm     81 % 0 mm
19:49 13.7 °C 10.7 °C 1023.9 hPa Calm     82 % 0 mm
19:54 13.5 °C 10.7 °C 1024.3 hPa Calm     83 % 0 mm
19:59 13.4 °C 10.8 °C 1024.3 hPa Calm     84 % 0 mm
20:04 13.2 °C 10.7 °C 1024.3 hPa Calm     85 % 0 mm
20:09 13.1 °C 10.6 °C 1024.3 hPa Calm     85 % 0 mm
20:14 12.8 °C 10.3 °C 1024.3 hPa Calm     85 % 0 mm
20:19 12.4 °C 9.9 °C 1024.3 hPa Calm     85 % 0 mm
20:24 12.1 °C 9.8 °C 1024.6 hPa Calm     86 % 0 mm
20:29 11.8 °C 9.7 °C 1024.6 hPa Calm     87 % 0 mm
20:34 11.6 °C 9.7 °C 1024.6 hPa Calm     88 % 0 mm
20:39 11.7 °C 10.1 °C 1024.6 hPa Calm     90 % 0 mm
20:44 11.9 °C 10.3 °C 1024.6 hPa Calm     90 % 0 mm
20:49 11.9 °C 10.1 °C 1024.6 hPa Calm   1.6 km/h 89 % 0 mm
20:55 11.9 °C 10.1 °C 1024.9 hPa Calm   1.6 km/h 89 % 0 mm
21:00 12.2 °C 10.3 °C 1024.9 hPa NNW 1.6 km/h 1.6 km/h 88 % 0 mm
21:05 12.5 °C 10.2 °C 1024.9 hPa Calm   1.6 km/h 86 % 0 mm
21:10 12.8 °C 10.2 °C 1024.9 hPa Calm   1.6 km/h 84 % 0 mm
21:15 12.9 °C 10.1 °C 1024.9 hPa NW 3.2 km/h 3.2 km/h 83 % 0 mm
21:20 13.1 °C 9.9 °C 1024.9 hPa Calm   3.2 km/h 81 % 0 mm
21:25 13.1 °C 9.7 °C 1024.9 hPa NW 1.6 km/h 6.4 km/h 80 % 0 mm
21:30 13.1 °C 9.5 °C 1024.9 hPa NNW 1.6 km/h 6.4 km/h 79 % 0 mm
21:35 13 °C 9.3 °C 1025.3 hPa NNW 1.6 km/h 6.4 km/h 78 % 0 mm
21:40 12.9 °C 9.2 °C 1025.3 hPa NNW 1.6 km/h 4.8 km/h 78 % 0 mm
21:45 12.7 °C 9 °C 1025.3 hPa Calm   3.2 km/h 78 % 0 mm
21:50 12.6 °C 8.9 °C 1025.3 hPa Calm   3.2 km/h 78 % 0 mm
21:55 12.5 °C 8.8 °C 1025.3 hPa NNW 1.6 km/h 4.8 km/h 78 % 0 mm
22:00 12.4 °C 8.7 °C 1025.6 hPa Calm   4.8 km/h 78 % 0 mm
22:05 12.3 °C 8.6 °C 1025.6 hPa North 1.6 km/h 4.8 km/h 78 % 0 mm
22:10 12.2 °C 8.5 °C 1025.6 hPa Calm   1.6 km/h 78 % 0 mm
22:15 12.2 °C 8.5 °C 1025.6 hPa NNW 1.6 km/h 1.6 km/h 78 % 0 mm
22:20 12.2 °C 8.3 °C 1025.6 hPa Calm   3.2 km/h 77 % 0 mm
22:25 12.2 °C 8.3 °C 1026 hPa Calm   3.2 km/h 77 % 0 mm
22:30 12.1 °C 8.2 °C 1026 hPa Calm   3.2 km/h 77 % 0 mm
22:35 12.1 °C 8 °C 1026 hPa Calm   3.2 km/h 76 % 0 mm
22:40 12.1 °C 8 °C 1026 hPa Calm   3.2 km/h 76 % 0 mm
22:45 12 °C 7.9 °C 1026 hPa NW 1.6 km/h 3.2 km/h 76 % 0 mm
22:50 11.8 °C 7.9 °C 1026 hPa Calm   3.2 km/h 77 % 0 mm
22:55 11.8 °C 7.9 °C 1026 hPa NW 1.6 km/h 3.2 km/h 77 % 0 mm
23:00 11.8 °C 7.9 °C 1026 hPa NW 1.6 km/h 3.2 km/h 77 % 0 mm
23:05 11.7 °C 7.8 °C 1026 hPa Calm   3.2 km/h 77 % 0 mm
23:10 11.6 °C 7.7 °C 1026.3 hPa Calm   3.2 km/h 77 % 0 mm
23:15 11.4 °C 7.5 °C 1026 hPa Calm   3.2 km/h 77 % 0 mm
23:20 11.4 °C 7.5 °C 1026.3 hPa NNW 1.6 km/h 4.8 km/h 77 % 0 mm
23:25 11.3 °C 7.4 °C 1026.3 hPa NW 1.6 km/h 4.8 km/h 77 % 0 mm
23:30 11.3 °C 7.2 °C 1026.3 hPa WNW 1.6 km/h 4.8 km/h 76 % 0 mm
23:35 11.3 °C 7.2 °C 1026.3 hPa NNW 1.6 km/h 4.8 km/h 76 % 0 mm
23:40 11.3 °C 7.2 °C 1026.3 hPa NW 3.2 km/h 4.8 km/h 76 % 0 mm
23:45 11.3 °C 7.2 °C 1026.3 hPa NW 1.6 km/h 6.4 km/h 76 % 0 mm
23:50 11.2 °C 7.1 °C 1026.3 hPa NNW 4.8 km/h 6.4 km/h 76 % 0 mm
23:55 11.2 °C 6.9 °C 1026.3 hPa NNW 1.6 km/h 8 km/h 75 % 0 mm
Spring, Texas: Villages of Bridgestone
Compliments of Weather Underground - 2.75 mb

Script developed by  Jim McMurry - jmcmurry@mwt.net Adapted for the template by  Wim van der Kuil - Leuven-Template.eu

You find our weather info also at:

UK Metoffice

WeatherCloud

Weather Underground

Mid-South Weather Network

AWEKAS

Citizen Weather Observer Program (CWOP)

HAMweather, WeatherForYou, PWS Weather

Equipment we use:

Weather-station
Davis Vantage Vue

Weather-program
Meteohub

Weather-server
Debian 7.9 x86 (Guest)

Provider
DreamHost

Davis Vantage Vue

Meteohub

Debian 7.9 x86 (Guest)

DreamHost